Dayton, OH

7:51 AM EST on November 20, 2017 (GMT -0500)
Cox-Dayton International

Weather History for KDAY - March, 2014

Change the Weather History Date:

Wednesday, March 19, 2014

  Actual Average Record
Temperature  
Mean Temperature 45 °F 42 °F  
Max Temperature 53 °F 51 °F 81 °F (2012)
Min Temperature 37 °F 32 °F 10 °F (1934)
Degree Days  
Heating Degree Days 20 24  
Month to date heating degree days 565 511  
Since 1 July heating degree days 5164 4786  
Cooling Degree Days 0 0  
Month to date cooling degree days 0 0  
Year to date cooling degree days 0 0  
Moisture  
Dew Point 43 °F    
Average Humidity 82    
Maximum Humidity 93    
Minimum Humidity 71    
Precipitation  
Precipitation 0.18 in 0.11 in 2.63 in (1943)
Month to date precipitation 1.26 1.89  
Year to date precipitation 6.24 6.84  
Snow  
Snow 0.00 in 0.10 in 7.50 in (1906)
Month to date snowfall 5.0 2.5  
Since 1 July snowfall 50.4 21.8  
Snow Depth 0.00 in    
Sea Level Pressure  
Sea Level Pressure 29.81 in    
Wind  
Wind Speed 18 mph (SW)    
Max Wind Speed 32 mph    
Max Gust Speed 38 mph    
Visibility 6 miles    
Events Rain    
T = Trace of Precipitation, MM = Missing Value Source: NWS Daily Summary

Daily Weather History Graph

Daily Weather History Graph

Search for Another Location

Airport or City:

Trip Planner

Search our weather history database for the weather conditions in past years. The results will help you decide how hot, cold, wet, or windy it might be!

Date:

Astronomy

Mar. 19, 2014 Rise Set
Actual Time 7:41 AM EDT 7:47 PM EDT
Civil Twilight 7:14 AM EDT 8:14 PM EDT
Nautical Twilight 6:43 AM EDT 8:46 PM EDT
Astronomical Twilight 6:11 AM EDT 9:18 PM EDT
Moon 11:05 PM EDT (3/19) 9:07 AM EDT (3/19)
Length of Visible Light 12h 59m
Length of Day
12h 06m
Waning Gibbous, 91% of the Moon is Illuminated
Mar 19
Waning Gibbous
Mar 23
Last Quarter
Mar 30
New
Apr 7
First Quarter
Apr 15
Full

Hourly Weather History & Observations

Time (EDT) Temp. Windchill Dew Point Humidity Pressure Visibility Wind Dir Wind Speed Gust Speed Precip Events Conditions
12:56 AM 46.0 °F 41.4 °F 39.0 °F 76% 29.83 in 10.0 mi SSE 9.2 mph - N/A   Partly Cloudy
1:56 AM 48.0 °F - 39.0 °F 71% 29.83 in 10.0 mi South 11.5 mph 18.4 mph N/A   Overcast
2:56 AM 48.0 °F - 39.9 °F 74% 29.83 in 10.0 mi South 15.0 mph 21.9 mph N/A   Scattered Clouds
3:56 AM 48.9 °F - 41.0 °F 74% 29.83 in 10.0 mi SSW 13.8 mph - N/A   Scattered Clouds
4:03 AM 48.2 °F - 41.0 °F 76% 29.82 in 10.0 mi South 12.7 mph - N/A   Overcast
4:56 AM 48.9 °F - 42.1 °F 77% 29.83 in 10.0 mi SSW 17.3 mph 23.0 mph N/A   Overcast
5:56 AM 48.9 °F - 41.0 °F 74% 29.82 in 10.0 mi South 13.8 mph 23.0 mph N/A   Overcast
6:56 AM 48.9 °F - 41.0 °F 74% 29.81 in 10.0 mi South 19.6 mph 24.2 mph N/A   Overcast
7:30 AM 46.4 °F 39.8 °F 42.8 °F 87% 29.79 in 7.0 mi South 16.1 mph 23.0 mph 0.04 in Rain Light Rain
7:56 AM 46.9 °F - 43.0 °F 86% 29.79 in 9.0 mi South 15.0 mph - 0.05 in   Overcast
8:27 AM 46.4 °F 41.1 °F 42.8 °F 87% 29.78 in 10.0 mi South 11.5 mph 21.9 mph 0.00 in   Overcast
8:53 AM 46.4 °F 39.8 °F 42.8 °F 87% 29.79 in 10.0 mi SSW 16.1 mph 21.9 mph 0.00 in   Overcast
8:56 AM 46.9 °F - 43.0 °F 86% 29.80 in 9.0 mi SW 13.8 mph 20.7 mph 0.00 in   Overcast
9:56 AM 48.0 °F - 44.1 °F 86% 29.78 in 5.0 mi SSW 15.0 mph 24.2 mph 0.00 in Rain Light Rain
10:56 AM 48.0 °F - 45.0 °F 89% 29.78 in 3.0 mi South 17.3 mph 26.5 mph 0.01 in Rain Light Rain
11:11 AM 48.2 °F - 44.6 °F 87% 29.77 in 4.0 mi South 16.1 mph 25.3 mph 0.00 in   Overcast
11:27 AM 48.2 °F - 44.6 °F 87% 29.77 in 2.0 mi South 15.0 mph 26.5 mph 0.00 in Rain Light Rain
11:56 AM 48.0 °F - 46.0 °F 93% 29.77 in 1.5 mi South 16.1 mph 24.2 mph 0.00 in Rain Light Rain
12:13 PM 48.2 °F - 46.4 °F 93% 29.76 in 2.0 mi SSW 15.0 mph 23.0 mph 0.01 in Rain Light Rain
12:56 PM 48.0 °F - 46.0 °F 93% 29.77 in 1.8 mi SSW 19.6 mph 24.2 mph 0.01 in Rain Light Rain
1:30 PM 48.2 °F - 46.4 °F 93% 29.75 in 2.5 mi SSW 15.0 mph 25.3 mph 0.01 in Rain Light Rain
1:56 PM 48.9 °F - 46.9 °F 93% 29.75 in 2.0 mi SSW 17.3 mph 24.2 mph 0.01 in Rain Light Rain
2:04 PM 48.2 °F - 46.4 °F 93% 29.75 in 1.5 mi SSW 17.3 mph 27.6 mph 0.00 in Rain Light Rain
2:17 PM 50.0 °F - 46.4 °F 87% 29.75 in 2.0 mi SSW 15.0 mph 25.3 mph 0.01 in Rain Light Rain
2:48 PM 50.0 °F - 48.2 °F 94% 29.74 in 1.5 mi SW 17.3 mph 25.3 mph 0.03 in Rain Rain
2:56 PM 50.0 °F - 48.0 °F 93% 29.75 in 1.8 mi SW 17.3 mph - 0.04 in Rain Light Rain
3:27 PM 50.0 °F - 48.2 °F 94% 29.74 in 3.0 mi SW 23.0 mph 29.9 mph 0.01 in Rain Light Rain
3:56 PM 52.0 °F - 48.0 °F 86% 29.75 in 7.0 mi SW 17.3 mph 26.5 mph 0.02 in   Overcast
4:15 PM 53.6 °F - 48.2 °F 82% 29.74 in 7.0 mi SW 19.6 mph 28.8 mph N/A   Overcast
4:56 PM 52.0 °F - 46.9 °F 83% 29.75 in 5.0 mi SW 18.4 mph 29.9 mph N/A   Haze
5:05 PM 51.8 °F - 46.4 °F 82% 29.76 in 1.8 mi West 25.3 mph 33.4 mph 0.00 in Rain Light Rain
5:14 PM 51.8 °F - 46.4 °F 82% 29.76 in 3.0 mi WSW 27.6 mph 35.7 mph 0.04 in Rain Light Rain
5:56 PM 50.0 °F - 43.0 °F 77% 29.80 in 7.0 mi West 26.5 mph 35.7 mph 0.04 in   Overcast
6:56 PM 46.9 °F - 39.0 °F 74% 29.85 in 9.0 mi West 21.9 mph 33.4 mph N/A   Overcast
7:49 PM 44.6 °F 35.5 °F 37.4 °F 76% 29.88 in 7.0 mi West 25.3 mph 36.8 mph N/A   Overcast
7:56 PM 44.1 °F 34.2 °F 37.9 °F 79% 29.90 in 6.0 mi West 28.8 mph 35.7 mph N/A   Haze
8:56 PM 42.1 °F 32.8 °F 36.0 °F 79% 29.94 in 6.0 mi West 21.9 mph 26.5 mph N/A   Haze
9:56 PM 41.0 °F 32.2 °F 34.0 °F 76% 29.96 in 7.0 mi West 18.4 mph - N/A   Overcast
10:56 PM 39.9 °F 31.1 °F 34.0 °F 79% 29.98 in 5.0 mi West 17.3 mph 26.5 mph N/A   Haze
11:56 PM 39.0 °F 30.6 °F 33.1 °F 79% 30.00 in 6.0 mi West 15.0 mph 26.5 mph N/A   Haze